Location: Bednik
(45.3500°N, 16.3833°E)
Time: 05:12:46
(UTC+00:00)

GEOS 3 Rocket - Pass Details

Date: 08 August 2020
Orbit: 770 x 849 km, 115.0° (Epoch: 19 September)

Event Time Altitude Azimuth Distance (km) Brightness Sun altitude
Rises 23:45:54 0° 40° (NE) 3,418 7.8 -28.0°
Reaches altitude 10° 23:48:17 10° 45° (NE) 2,481 6.8 -27.9°
Enters shadow 23:53:17 58° 107° (ESE) 987 3.9 -27.7°
